Regional Weather Roundup
Issued by NWS Goodland, KS

Home | Current Version | Previous Version | Graphics & Text | Print | Product List | Glossary On
Versions: 1 2 3 4 5 6 7 8 9 10 11 12 13 14 15 16 17 18 19 20 21 22 23 24 25 26 27 28 29 30 31 32 33 34 35 36 37 38 39 40 41 42 43 44 45 46 47 48 49 50
000
ASUS43 KGLD 281059
RWRGLD

GOODLAND FORECAST AREA HOURLY WEATHER ROUNDUP
NATIONAL WEATHER SERVICE GOODLAND KS
500 AM MDT FRI APR 28 2017

...OFFICIAL OBSERVATIONS...

CITY           SKY/WX    TMP DP  RH WIND       PRES   REMARKS
GOODLAND KS    CLEAR     35  33  92 W12       29.60S
HILL CITY KS   CLOUDY    46  46 100 SE5       29.59S FOG
IMPERIAL NEB   LGT RAIN  40  38  93 E15       29.61R
MCCOOK NEB     RAIN      43  43 100 NE13      29.59S FOG
AKRON CO       CLOUDY    34  32  92 W8        29.60S
BURLINGTON CO  NOT AVBL
LIMON CO       CLEAR     27  27 100 S3        29.63S
$$

...UNOFFICIAL OBSERVATIONS...

CITY           SKY/WX    TMP DP  RH WIND       PRES   REMARKS
LENORA KS        N/A     44  32  63 MISG        N/A
NORTON KS      DRIZZLE   45  41  87 E7        29.58S
SHARON SPRINGS   N/A     34  32  94 SW6         N/A
KIT CARSON CO    N/A     32  29  87 MISG        N/A
YUMA CO        CLOUDY    36  36 100 CALM      29.61S
$$



USA.gov is the U.S. government's official web portal to all federal, state and local government web resources and services.